TimeCST,TemperatureF,Dew PointF,Humidity,Sea Level PressureIn,VisibilityMPH,Wind Direction,Wind SpeedMPH,Gust SpeedMPH,PrecipitationIn,Events,Conditions,WindDirDegrees,DateUTC
12:08 AM,26.6,19.4,74,29.94,10.0,WNW,13.8,24.2,N/A,,Overcast,290,2013-03-05 06:08:00
1:56 AM,24.1,19.0,81,30.01,10.0,West,12.7,-,0.00,,Overcast,280,2013-03-05 07:56:00
2:56 AM,24.8,19.4,80,29.93,10.0,West,12.7,18.4,N/A,,Overcast,270,2013-03-05 08:56:00
3:56 AM,24.8,19.4,80,29.92,5.0,West,8.1,-,N/A,Snow,Light Snow,270,2013-03-05 09:56:00
4:46 AM,24.8,21.2,86,29.92,2.0,WNW,11.5,-,0.01,Snow,Light Snow,290,2013-03-05 10:46:00
4:56 AM,25.0,21.9,88,29.98,3.0,WNW,10.4,-,0.01,Snow,Light Snow,290,2013-03-05 10:56:00
5:28 AM,24.8,21.2,86,29.94,6.0,NW,12.7,-,N/A,Snow,Light Snow,320,2013-03-05 11:28:00
5:56 AM,25.0,21.0,85,30.01,9.0,NW,11.5,-,0.00,Snow,Light Snow,310,2013-03-05 11:56:00
6:08 AM,24.8,21.2,86,29.97,9.0,NW,13.8,-,0.00,Snow,Light Snow,310,2013-03-05 12:08:00
6:16 AM,24.8,21.2,86,29.97,9.0,NW,15.0,-,0.00,Snow,Light Snow,310,2013-03-05 12:16:00
6:56 AM,25.0,21.0,85,30.05,5.0,NW,16.1,24.2,0.00,Snow,Light Snow,310,2013-03-05 12:56:00
7:12 AM,24.8,21.2,86,30.00,1.5,NW,17.3,-,0.00,Snow,Light Snow,310,2013-03-05 13:12:00
7:22 AM,24.8,21.2,86,30.00,0.8,NW,21.9,28.8,0.00,Snow,Light Snow,310,2013-03-05 13:22:00
7:56 AM,25.0,21.9,88,30.09,0.5,NW,23.0,33.4,0.00,Snow,Snow,320,2013-03-05 13:56:00
8:28 AM,23.0,19.4,86,30.06,1.2,NNW,29.9,39.1,0.00,Snow,Light Snow,330,2013-03-05 14:28:00
8:38 AM,23.0,19.4,86,30.06,2.0,NNW,28.8,38.0,0.00,Snow,Light Snow,340,2013-03-05 14:38:00
8:52 AM,24.8,19.4,80,30.07,4.0,NNW,25.3,38.0,0.00,Snow,Blowing Snow,340,2013-03-05 14:52:00
8:56 AM,24.1,19.0,81,30.14,4.0,NNW,23.0,35.7,0.01,Snow,Blowing Snow,330,2013-03-05 14:56:00
9:24 AM,24.8,19.4,80,30.09,9.0,NNW,24.2,34.5,N/A,,Overcast,330,2013-03-05 15:24:00
9:51 AM,24.8,19.4,80,30.10,10.0,NNW,24.2,33.4,N/A,,Overcast,330,2013-03-05 15:51:00
9:56 AM,25.0,19.0,78,30.17,10.0,NNW,23.0,31.1,N/A,,Overcast,340,2013-03-05 15:56:00
10:56 AM,26.1,19.9,78,30.19,10.0,NNW,21.9,35.7,0.00,,Overcast,330,2013-03-05 16:56:00
11:56 AM,26.1,19.0,75,30.23,10.0,NNW,20.7,36.8,N/A,,Overcast,330,2013-03-05 17:56:00
12:56 PM,26.1,18.0,71,30.25,10.0,NNW,25.3,34.5,0.00,,Overcast,340,2013-03-05 18:56:00
1:56 PM,25.0,17.1,72,30.27,10.0,NNW,25.3,32.2,0.00,,Overcast,330,2013-03-05 19:56:00
2:56 PM,26.1,18.0,71,30.28,10.0,NNW,25.3,32.2,N/A,,Overcast,340,2013-03-05 20:56:00
3:56 PM,25.0,18.0,75,30.31,9.0,NNW,23.0,28.8,0.00,Snow,Light Snow,340,2013-03-05 21:56:00
4:56 PM,24.1,17.1,75,30.35,10.0,NNW,19.6,-,0.00,,Overcast,340,2013-03-05 22:56:00
5:56 PM,23.0,17.1,78,30.37,5.0,NNW,18.4,26.5,0.00,Snow,Light Snow,330,2013-03-05 23:56:00
6:56 PM,21.9,16.0,78,30.38,9.0,North,17.3,-,0.00,Snow,Light Snow,350,2013-03-06 00:56:00
7:56 PM,21.9,16.0,78,30.40,9.0,NNW,16.1,23.0,0.00,Snow,Light Snow,340,2013-03-06 01:56:00
8:56 PM,21.0,15.1,78,30.40,10.0,NNW,18.4,24.2,0.00,,Overcast,340,2013-03-06 02:56:00
9:56 PM,21.0,15.1,78,30.42,10.0,North,11.5,-,N/A,,Overcast,350,2013-03-06 03:56:00
10:56 PM,19.9,15.1,81,30.43,10.0,NNW,13.8,-,N/A,,Overcast,340,2013-03-06 04:56:00
11:56 PM,19.9,14.0,78,30.44,10.0,NNW,10.4,-,N/A,,Overcast,340,2013-03-06 05:56:00